Location: Six Mile Lake
(44.9000°N, 79.7170°W)
Time: 03:08:25
(UTC-04:00)

LO-87 - Pass Details

Date: 07 July 2022
Orbit: 450 x 466 km, 97.4° (Epoch: 14 August)

Event Time Altitude Azimuth Distance (km) Brightness Sun altitude
Exits shadow 00:33:46 50° 68° (ENE) 604 ? -21.6°
Drops below altitude 10° 00:37:05 10° 358° (N) 1,631 ? -21.7°
Sets 00:39:11 0° 353° (N) 2,516 ? -21.7°
